Time,TemperatureF,DewpointF,PressureIn,WindDirection,WindDirectionDegrees,WindSpeedMPH,WindSpeedGustMPH,Humidity,HourlyPrecipIn,Conditions,Clouds,dailyrainin,SoftwareType,DateUTC
2013-03-27 00:00:00,33.7,26.9,30.10,West,260,1.0,1.0,76,0.00,,,0.13,Wunderground v.1.15,2013-03-27 04:00:00,
2013-03-27 00:05:00,33.7,26.9,30.10,West,268,1.0,1.0,76,0.00,,,0.00,Wunderground v.1.15,2013-03-27 04:05:00,
2013-03-27 00:15:00,33.7,26.9,30.10,WNW,290,0.0,1.0,76,0.00,,,0.00,Wunderground v.1.15,2013-03-27 04:15:00,
2013-03-27 00:25:00,33.5,26.7,30.11,ENE,63,1.0,2.0,76,0.00,,,0.00,Wunderground v.1.15,2013-03-27 04:25:00,
2013-03-27 00:30:00,33.5,26.7,30.11,West,260,1.0,1.0,76,0.00,,,0.00,Wunderground v.1.15,2013-03-27 04:30:00,
2013-03-27 00:40:00,33.5,26.7,30.11,West,267,1.0,1.0,76,0.00,,,0.00,Wunderground v.1.15,2013-03-27 04:40:00,
2013-03-27 00:45:00,33.5,26.7,30.11,SW,219,1.0,3.0,76,0.00,,,0.00,Wunderground v.1.15,2013-03-27 04:45:00,
2013-03-27 00:55:00,33.5,26.7,30.11,West,269,1.0,2.0,76,0.00,,,0.00,Wunderground v.1.15,2013-03-27 04:55:00,
2013-03-27 01:00:00,33.4,26.6,30.11,WSW,240,1.0,1.0,76,0.00,,,0.00,Wunderground v.1.15,2013-03-27 05:00:00,
2013-03-27 01:05:00,33.4,26.6,30.11,WNW,282,1.0,1.0,76,0.00,,,0.00,Wunderground v.1.15,2013-03-27 05:05:00,
2013-03-27 01:15:00,33.2,26.5,30.11,West,261,1.0,2.0,76,0.00,,,0.00,Wunderground v.1.15,2013-03-27 05:15:00,
2013-03-27 01:25:00,33.2,26.5,30.11,WNW,298,1.0,2.0,76,0.00,,,0.00,Wunderground v.1.15,2013-03-27 05:25:00,
2013-03-27 01:30:00,33.2,26.1,30.11,SW,230,1.0,1.0,75,0.00,,,0.00,Wunderground v.1.15,2013-03-27 05:30:00,
2013-03-27 01:40:00,33.2,26.1,30.10,WSW,252,1.0,2.0,75,0.00,,,0.00,Wunderground v.1.15,2013-03-27 05:40:00,
2013-03-27 01:45:00,33.2,26.5,30.10,WSW,257,1.0,3.0,76,0.00,,,0.00,Wunderground v.1.15,2013-03-27 05:45:00,
2013-03-27 01:55:00,33.1,26.4,30.10,South,184,1.0,1.0,76,0.00,,,0.00,Wunderground v.1.15,2013-03-27 05:55:00,
2013-03-27 02:00:00,33.1,26.4,30.10,West,265,1.0,1.0,76,0.00,,,0.00,Wunderground v.1.15,2013-03-27 06:00:00,
2013-03-27 02:10:00,33.1,26.4,30.11,West,267,1.0,2.0,76,0.00,,,0.00,Wunderground v.1.15,2013-03-27 06:10:00,
2013-03-27 02:15:00,33.1,26.4,30.11,SSW,202,1.0,2.0,76,0.00,,,0.00,Wunderground v.1.15,2013-03-27 06:15:00,
2013-03-27 02:25:00,33.1,26.4,30.11,ENE,71,1.0,1.0,76,0.00,,,0.00,Wunderground v.1.15,2013-03-27 06:25:00,
2013-03-27 02:30:00,33.1,26.4,30.11,ENE,57,2.0,2.0,76,0.00,,,0.00,Wunderground v.1.15,2013-03-27 06:30:00,
2013-03-27 02:40:00,33.1,26.4,30.10,WSW,242,1.0,1.0,76,0.00,,,0.00,Wunderground v.1.15,2013-03-27 06:40:00,
2013-03-27 02:45:00,33.1,26.4,30.10,WNW,291,2.0,2.0,76,0.00,,,0.00,Wunderground v.1.15,2013-03-27 06:45:00,
2013-03-27 02:55:00,32.9,26.5,30.10,WSW,246,1.0,2.0,77,0.00,,,0.00,Wunderground v.1.15,2013-03-27 06:55:00,
2013-03-27 03:01:00,32.8,26.4,30.10,WSW,247,1.0,1.0,77,0.00,,,0.00,Wunderground v.1.15,2013-03-27 07:01:00,
2013-03-27 03:10:00,32.8,26.4,30.10,WSW,250,1.0,2.0,77,0.00,,,0.00,Wunderground v.1.15,2013-03-27 07:10:00,
2013-03-27 03:16:00,32.7,26.6,30.10,WSW,238,1.0,2.0,78,0.00,,,0.00,Wunderground v.1.15,2013-03-27 07:16:00,
2013-03-27 03:25:00,32.7,26.6,30.10,West,262,1.0,2.0,78,0.00,,,0.00,Wunderground v.1.15,2013-03-27 07:25:00,
2013-03-27 03:31:00,32.5,26.4,30.10,WNW,294,1.0,1.0,78,0.00,,,0.00,Wunderground v.1.15,2013-03-27 07:31:00,
2013-03-27 03:40:00,32.5,26.4,30.10,WSW,238,1.0,1.0,78,0.00,,,0.00,Wunderground v.1.15,2013-03-27 07:40:00,
2013-03-27 03:45:00,32.4,26.6,30.10,WSW,246,1.0,1.0,79,0.00,,,0.00,Wunderground v.1.15,2013-03-27 07:45:00,
2013-03-27 03:55:00,32.4,26.6,30.10,West,268,1.0,1.0,79,0.00,,,0.00,Wunderground v.1.15,2013-03-27 07:55:00,
2013-03-27 04:00:00,32.4,26.6,30.10,WSW,242,1.0,1.0,79,0.00,,,0.00,Wunderground v.1.15,2013-03-27 08:00:00,
2013-03-27 04:10:00,32.2,26.7,30.10,WSW,256,1.0,3.0,80,0.00,,,0.00,Wunderground v.1.15,2013-03-27 08:10:00,
2013-03-27 04:15:00,32.2,26.7,30.10,WSW,254,1.0,3.0,80,0.00,,,0.00,Wunderground v.1.15,2013-03-27 08:15:00,
2013-03-27 04:25:00,32.2,26.7,30.10,SW,231,1.0,3.0,80,0.00,,,0.00,Wunderground v.1.15,2013-03-27 08:25:00,
2013-03-27 04:30:00,32.2,26.7,30.10,West,261,1.0,1.0,80,0.00,,,0.00,Wunderground v.1.15,2013-03-27 08:30:00,
2013-03-27 04:40:00,32.4,26.9,30.10,WSW,252,1.0,1.0,80,0.00,,,0.00,Wunderground v.1.15,2013-03-27 08:40:00,
2013-03-27 04:45:00,32.4,26.9,30.10,SSW,209,1.0,1.0,80,0.00,,,0.00,Wunderground v.1.15,2013-03-27 08:45:00,
2013-03-27 04:55:00,32.4,27.2,30.10,SW,225,1.0,1.0,81,0.00,,,0.00,Wunderground v.1.15,2013-03-27 08:55:00,
2013-03-27 05:00:00,32.2,27.0,30.10,ENE,74,1.0,1.0,81,0.00,,,0.00,Wunderground v.1.15,2013-03-27 09:00:00,
2013-03-27 05:10:00,32.4,27.5,30.10,West,259,1.0,1.0,82,0.00,,,0.00,Wunderground v.1.15,2013-03-27 09:10:00,
2013-03-27 05:16:00,32.4,27.2,30.10,West,262,1.0,1.0,81,0.00,,,0.00,Wunderground v.1.15,2013-03-27 09:16:00,
2013-03-27 05:25:00,32.4,27.5,30.10,WSW,258,1.0,1.0,82,0.00,,,0.00,Wunderground v.1.15,2013-03-27 09:25:00,
2013-03-27 05:30:00,32.2,27.3,30.10,SW,232,1.0,1.0,82,0.00,,,0.00,Wunderground v.1.15,2013-03-27 09:30:00,
2013-03-27 05:40:00,32.2,27.3,30.10,WNW,292,1.0,2.0,82,0.00,,,0.00,Wunderground v.1.15,2013-03-27 09:40:00,
2013-03-27 05:45:00,32.2,27.3,30.10,SW,235,1.0,2.0,82,0.00,,,0.00,Wunderground v.1.15,2013-03-27 09:45:00,
2013-03-27 05:55:00,32.2,27.3,30.10,WSW,237,1.0,1.0,82,0.00,,,0.00,Wunderground v.1.15,2013-03-27 09:55:00,
2013-03-27 06:00:00,32.2,27.3,30.10,WSW,258,0.0,0.0,82,0.00,,,0.00,Wunderground v.1.15,2013-03-27 10:00:00,
2013-03-27 06:05:00,32.2,27.6,30.11,WSW,258,0.0,0.0,83,0.00,,,0.00,Wunderground v.1.15,2013-03-27 10:05:00,
2013-03-27 06:15:00,32.2,27.6,30.11,SW,219,0.0,3.0,83,0.00,,,0.00,Wunderground v.1.15,2013-03-27 10:15:00,
2013-03-27 06:25:00,32.2,27.6,30.11,West,259,1.0,1.0,83,0.00,,,0.00,Wunderground v.1.15,2013-03-27 10:25:00,
2013-03-27 06:31:00,32.2,27.6,30.11,West,260,0.0,1.0,83,0.00,,,0.00,Wunderground v.1.15,2013-03-27 10:31:00,
2013-03-27 06:40:00,32.2,27.9,30.12,West,264,1.0,1.0,84,0.00,,,0.00,Wunderground v.1.15,2013-03-27 10:40:00,
2013-03-27 06:45:00,32.2,27.9,30.12,WSW,238,1.0,1.0,84,0.00,,,0.00,Wunderground v.1.15,2013-03-27 10:45:00,
2013-03-27 06:55:00,32.2,27.9,30.12,West,280,1.0,1.0,84,0.00,,,0.00,Wunderground v.1.15,2013-03-27 10:55:00,
2013-03-27 07:00:00,32.2,27.9,30.12,West,275,1.0,2.0,84,0.00,,,0.00,Wunderground v.1.15,2013-03-27 11:00:00,
2013-03-27 07:10:00,32.2,27.9,30.13,SW,228,1.0,1.0,84,0.00,,,0.00,Wunderground v.1.15,2013-03-27 11:10:00,
2013-03-27 07:15:00,32.2,27.9,30.13,WSW,241,1.0,1.0,84,0.00,,,0.00,Wunderground v.1.15,2013-03-27 11:15:00,
2013-03-27 07:25:00,32.2,27.9,30.13,WSW,240,0.0,1.0,84,0.00,,,0.00,Wunderground v.1.15,2013-03-27 11:25:00,
2013-03-27 07:30:00,32.2,28.2,30.13,WSW,240,0.0,0.0,85,0.00,,,0.00,Wunderground v.1.15,2013-03-27 11:30:00,
2013-03-27 07:40:00,32.2,28.2,30.13,ENE,58,0.0,0.0,85,0.00,,,0.00,Wunderground v.1.15,2013-03-27 11:40:00,
2013-03-27 07:45:00,32.2,28.2,30.13,WSW,255,0.0,1.0,85,0.00,,,0.00,Wunderground v.1.15,2013-03-27 11:45:00,
2013-03-27 07:55:00,32.2,28.2,30.13,WSW,257,1.0,1.0,85,0.00,,,0.00,Wunderground v.1.15,2013-03-27 11:55:00,
2013-03-27 08:00:00,32.2,28.2,30.13,East,89,1.0,1.0,85,0.00,,,0.00,Wunderground v.1.15,2013-03-27 12:00:00,
2013-03-27 08:10:00,32.2,28.2,30.14,West,267,1.0,1.0,85,0.00,,,0.00,Wunderground v.1.15,2013-03-27 12:10:00,
2013-03-27 08:15:00,32.2,28.2,30.14,West,260,1.0,1.0,85,0.00,,,0.00,Wunderground v.1.15,2013-03-27 12:15:00,
2013-03-27 08:25:00,32.4,28.4,30.15,West,264,1.0,2.0,85,0.00,,,0.00,Wunderground v.1.15,2013-03-27 12:25:00,
2013-03-27 08:31:00,32.5,28.5,30.15,West,264,1.0,1.0,85,0.00,,,0.00,Wunderground v.1.15,2013-03-27 12:31:00,
2013-03-27 08:40:00,32.7,28.4,30.15,WSW,253,1.0,1.0,84,0.00,,,0.00,Wunderground v.1.15,2013-03-27 12:40:00,
2013-03-27 08:45:00,32.7,28.4,30.15,WSW,248,1.0,1.0,84,0.00,,,0.00,Wunderground v.1.15,2013-03-27 12:45:00,
2013-03-27 08:55:00,32.8,28.5,30.16,West,269,1.0,1.0,84,0.00,,,0.00,Wunderground v.1.15,2013-03-27 12:55:00,
2013-03-27 09:00:00,32.9,28.3,30.16,West,277,1.0,1.0,83,0.00,,,0.00,Wunderground v.1.15,2013-03-27 13:00:00,
2013-03-27 09:10:00,33.2,28.6,30.16,West,261,1.0,1.0,83,0.00,,,0.00,Wunderground v.1.15,2013-03-27 13:10:00,
2013-03-27 09:16:00,33.4,28.5,30.16,ESE,115,1.0,1.0,82,0.00,,,0.00,Wunderground v.1.15,2013-03-27 13:16:00,
2013-03-27 09:25:00,33.7,28.5,30.16,ENE,75,1.0,3.0,81,0.00,,,0.00,Wunderground v.1.15,2013-03-27 13:25:00,
2013-03-27 09:30:00,33.8,28.3,30.16,SW,228,1.0,1.0,80,0.00,,,0.00,Wunderground v.1.15,2013-03-27 13:30:00,
2013-03-27 09:40:00,34.0,28.2,30.16,WNW,283,2.0,2.0,79,0.00,,,0.00,Wunderground v.1.15,2013-03-27 13:40:00,
2013-03-27 09:45:00,34.1,28.0,30.16,WSW,242,2.0,2.0,78,0.00,,,0.00,Wunderground v.1.15,2013-03-27 13:45:00,
2013-03-27 09:55:00,34.4,28.2,30.17,WSW,253,1.0,3.0,78,0.00,,,0.00,Wunderground v.1.15,2013-03-27 13:55:00,
2013-03-27 10:00:00,34.6,28.1,30.17,ESE,107,2.0,2.0,77,0.00,,,0.00,Wunderground v.1.15,2013-03-27 14:00:00,
2013-03-27 10:10:00,34.9,28.1,30.17,West,259,2.0,2.0,76,0.00,,,0.00,Wunderground v.1.15,2013-03-27 14:10:00,
2013-03-27 10:15:00,35.3,28.2,30.17,West,268,2.0,2.0,75,0.00,,,0.00,Wunderground v.1.15,2013-03-27 14:15:00,
2013-03-27 10:25:00,36.2,28.7,30.17,WSW,256,1.0,1.0,74,0.00,,,0.00,Wunderground v.1.15,2013-03-27 14:25:00,
2013-03-27 10:30:00,36.3,27.8,30.17,West,273,1.0,1.0,71,0.00,,,0.00,Wunderground v.1.15,2013-03-27 14:30:00,
2013-03-27 10:40:00,36.8,27.6,30.17,West,260,2.0,2.0,69,0.00,,,0.00,Wunderground v.1.15,2013-03-27 14:40:00,
2013-03-27 10:46:00,37.0,27.8,30.17,ENE,69,2.0,2.0,69,0.00,,,0.00,Wunderground v.1.15,2013-03-27 14:46:00,
2013-03-27 10:55:00,37.6,28.3,30.17,NW,311,1.0,1.0,69,0.00,,,0.00,Wunderground v.1.15,2013-03-27 14:55:00,
2013-03-27 11:00:00,38.2,27.5,30.17,NNE,27,1.0,1.0,65,0.00,,,0.00,Wunderground v.1.15,2013-03-27 15:00:00,
2013-03-27 11:10:00,39.1,26.8,30.17,West,259,1.0,1.0,61,0.00,,,0.00,Wunderground v.1.15,2013-03-27 15:10:00,
2013-03-27 11:15:00,39.3,27.4,30.17,ENE,65,1.0,1.0,62,0.00,,,0.00,Wunderground v.1.15,2013-03-27 15:15:00,
2013-03-27 11:25:00,39.6,26.0,30.17,WSW,257,2.0,2.0,58,0.00,,,0.00,Wunderground v.1.15,2013-03-27 15:25:00,
2013-03-27 11:30:00,39.9,27.9,30.17,WSW,251,2.0,3.0,62,0.00,,,0.00,Wunderground v.1.15,2013-03-27 15:30:00,
2013-03-27 11:40:00,40.5,27.3,30.18,North,355,2.0,2.0,59,0.00,,,0.00,Wunderground v.1.15,2013-03-27 15:40:00,
2013-03-27 11:45:00,40.8,27.2,30.18,NNE,24,2.0,3.0,58,0.00,,,0.00,Wunderground v.1.15,2013-03-27 15:45:00,
2013-03-27 11:55:00,40.9,26.4,30.18,West,270,2.0,4.0,56,0.00,,,0.00,Wunderground v.1.15,2013-03-27 15:55:00,
2013-03-27 12:00:00,41.3,25.9,30.18,WSW,248,2.0,4.0,54,0.00,,,0.00,Wunderground v.1.15,2013-03-27 16:00:00,
2013-03-27 12:10:00,40.8,25.4,30.18,West,261,2.0,2.0,54,0.00,,,0.00,Wunderground v.1.15,2013-03-27 16:10:00,
2013-03-27 12:16:00,40.6,25.7,30.18,WSW,242,2.0,3.0,55,0.00,,,0.00,Wunderground v.1.15,2013-03-27 16:16:00,
2013-03-27 12:25:00,41.1,25.7,30.18,WNW,288,2.0,4.0,54,0.00,,,0.00,Wunderground v.1.15,2013-03-27 16:25:00,
2013-03-27 12:35:00,42.1,26.6,30.18,WSW,240,2.0,4.0,54,0.00,,,0.00,Wunderground v.1.15,2013-03-27 16:35:00,
2013-03-27 12:40:00,41.6,25.7,30.18,WSW,248,2.0,4.0,53,0.00,,,0.00,Wunderground v.1.15,2013-03-27 16:40:00,
2013-03-27 12:46:00,41.8,25.0,30.18,NNE,22,1.0,1.0,51,0.00,,,0.00,Wunderground v.1.15,2013-03-27 16:46:00,
2013-03-27 12:55:00,42.1,25.3,30.18,West,268,2.0,7.0,51,0.00,,,0.00,Wunderground v.1.15,2013-03-27 16:55:00,
2013-03-27 13:10:00,42.1,24.8,30.18,WSW,250,2.0,4.0,50,0.00,,,0.00,Wunderground v.1.15,2013-03-27 17:10:00,
2013-03-27 13:15:00,42.1,24.8,30.18,East,94,3.0,4.0,50,0.00,,,0.00,Wunderground v.1.15,2013-03-27 17:15:00,
2013-03-27 13:25:00,42.8,25.9,30.18,SW,227,3.0,5.0,51,0.00,,,0.00,Wunderground v.1.15,2013-03-27 17:25:00,
2013-03-27 13:35:00,43.3,23.4,30.17,WNW,287,4.0,4.0,45,0.00,,,0.00,Wunderground v.1.15,2013-03-27 17:35:00,
2013-03-27 13:55:00,43.5,24.6,30.17,WSW,251,3.0,3.0,47,0.00,,,0.00,Wunderground v.1.15,2013-03-27 17:55:00,
2013-03-27 14:05:00,43.8,23.8,30.17,East,96,2.0,6.0,45,0.00,,,0.00,Wunderground v.1.15,2013-03-27 18:05:00,
2013-03-27 14:20:00,41.9,22.1,30.17,NW,319,2.0,5.0,45,0.00,,,0.00,Wunderground v.1.15,2013-03-27 18:20:00,
2013-03-27 14:25:00,42.3,24.5,30.17,West,266,2.0,2.0,49,0.00,,,0.00,Wunderground v.1.15,2013-03-27 18:25:00,
2013-03-27 14:35:00,41.9,22.1,30.16,WNW,284,3.0,3.0,45,0.00,,,0.00,Wunderground v.1.15,2013-03-27 18:35:00,
2013-03-27 14:50:00,42.2,21.3,30.16,SSW,205,2.0,2.0,43,0.00,,,0.00,Wunderground v.1.15,2013-03-27 18:50:00,
2013-03-27 14:55:00,41.6,20.7,30.16,WSW,242,2.0,4.0,43,0.00,,,0.00,Wunderground v.1.15,2013-03-27 18:55:00,
2013-03-27 15:05:00,41.1,22.4,30.16,ENE,63,2.0,2.0,47,0.00,,,0.00,Wunderground v.1.15,2013-03-27 19:05:00,
2013-03-27 15:20:00,41.1,22.4,30.16,West,281,2.0,2.0,47,0.00,,,0.00,Wunderground v.1.15,2013-03-27 19:20:00,
2013-03-27 15:25:00,41.2,22.0,30.16,WSW,257,2.0,2.0,46,0.00,,,0.00,Wunderground v.1.15,2013-03-27 19:25:00,
2013-03-27 15:30:00,41.3,21.5,30.16,WSW,248,2.0,2.0,45,0.00,,,0.00,Wunderground v.1.15,2013-03-27 19:30:00,
2013-03-27 15:40:00,41.1,22.4,30.16,West,261,3.0,3.0,47,0.00,,,0.00,Wunderground v.1.15,2013-03-27 19:40:00,
2013-03-27 15:45:00,40.8,22.6,30.16,West,264,3.0,6.0,48,0.00,,,0.00,Wunderground v.1.15,2013-03-27 19:45:00,
2013-03-27 15:55:00,41.1,22.4,30.16,East,92,2.0,3.0,47,0.00,,,0.00,Wunderground v.1.15,2013-03-27 19:55:00,
2013-03-27 16:00:00,41.1,21.9,30.16,West,271,2.0,3.0,46,0.00,,,0.00,Wunderground v.1.15,2013-03-27 20:00:00,
2013-03-27 16:10:00,40.9,23.2,30.16,WNW,287,2.0,2.0,49,0.00,,,0.00,Wunderground v.1.15,2013-03-27 20:10:00,
2013-03-27 16:20:00,41.1,21.3,30.16,SSE,165,2.0,3.0,45,0.00,,,0.00,Wunderground v.1.15,2013-03-27 20:20:00,
2013-03-27 16:30:00,41.3,20.5,30.16,West,261,1.0,1.0,43,0.00,,,0.00,Wunderground v.1.15,2013-03-27 20:30:00,
2013-03-27 16:40:00,41.1,21.3,30.16,SE,124,2.0,2.0,45,0.00,,,0.00,Wunderground v.1.15,2013-03-27 20:40:00,
2013-03-27 16:45:00,41.1,20.8,30.16,SW,233,1.0,2.0,44,0.00,,,0.00,Wunderground v.1.15,2013-03-27 20:45:00,
2013-03-27 16:55:00,40.8,20.0,30.16,SE,135,3.0,4.0,43,0.00,,,0.00,Wunderground v.1.15,2013-03-27 20:55:00,
2013-03-27 17:00:00,40.9,20.1,30.16,West,274,2.0,5.0,43,0.00,,,0.00,Wunderground v.1.15,2013-03-27 21:00:00,
2013-03-27 17:10:00,40.8,21.1,30.16,West,261,2.0,2.0,45,0.00,,,0.00,Wunderground v.1.15,2013-03-27 21:10:00,
2013-03-27 17:15:00,40.9,20.1,30.16,West,259,2.0,2.0,43,0.00,,,0.00,Wunderground v.1.15,2013-03-27 21:15:00,
2013-03-27 17:25:00,40.9,20.6,30.16,West,263,2.0,2.0,44,0.00,,,0.00,Wunderground v.1.15,2013-03-27 21:25:00,
2013-03-27 17:30:00,40.6,19.8,30.16,West,270,2.0,2.0,43,0.00,,,0.00,Wunderground v.1.15,2013-03-27 21:30:00,
2013-03-27 17:40:00,40.6,20.9,30.16,SW,217,1.0,2.0,45,0.00,,,0.00,Wunderground v.1.15,2013-03-27 21:40:00,
2013-03-27 17:45:00,40.6,21.4,30.16,WSW,253,1.0,2.0,46,0.00,,,0.00,Wunderground v.1.15,2013-03-27 21:45:00,
2013-03-27 17:55:00,40.3,20.6,30.17,NNE,26,2.0,2.0,45,0.00,,,0.00,Wunderground v.1.15,2013-03-27 21:55:00,
2013-03-27 18:00:00,40.2,20.5,30.17,West,281,2.0,3.0,45,0.00,,,0.00,Wunderground v.1.15,2013-03-27 22:00:00,
2013-03-27 18:10:00,40.1,21.5,30.17,West,269,2.0,3.0,47,0.00,,,0.00,Wunderground v.1.15,2013-03-27 22:10:00,
2013-03-27 18:15:00,39.9,22.3,30.17,NNE,27,1.0,3.0,49,0.00,,,0.00,Wunderground v.1.15,2013-03-27 22:15:00,
2013-03-27 18:25:00,39.8,22.7,30.17,SW,232,1.0,4.0,50,0.00,,,0.00,Wunderground v.1.15,2013-03-27 22:25:00,
2013-03-27 18:30:00,39.6,22.0,30.17,SW,215,1.0,2.0,49,0.00,,,0.00,Wunderground v.1.15,2013-03-27 22:30:00,
2013-03-27 18:40:00,39.5,21.9,30.17,West,268,2.0,2.0,49,0.00,,,0.00,Wunderground v.1.15,2013-03-27 22:40:00,
2013-03-27 18:45:00,39.3,22.2,30.17,WSW,252,1.0,3.0,50,0.00,,,0.00,Wunderground v.1.15,2013-03-27 22:45:00,
2013-03-27 18:55:00,39.3,23.1,30.18,WNW,286,1.0,1.0,52,0.00,,,0.00,Wunderground v.1.15,2013-03-27 22:55:00,
2013-03-27 19:00:00,39.2,23.9,30.18,East,87,1.0,1.0,54,0.00,,,0.00,Wunderground v.1.15,2013-03-27 23:00:00,
2013-03-27 19:10:00,38.9,24.5,30.18,West,259,1.0,1.0,56,0.00,,,0.00,Wunderground v.1.15,2013-03-27 23:10:00,
2013-03-27 19:15:00,38.6,24.2,30.18,West,264,1.0,1.0,56,0.00,,,0.00,Wunderground v.1.15,2013-03-27 23:15:00,
2013-03-27 19:25:00,38.3,24.4,30.18,West,270,1.0,2.0,57,0.00,,,0.00,Wunderground v.1.15,2013-03-27 23:25:00,
2013-03-27 19:30:00,38.2,24.7,30.18,West,270,1.0,1.0,58,0.00,,,0.00,Wunderground v.1.15,2013-03-27 23:30:00,
2013-03-27 19:40:00,38.0,24.9,30.18,SW,226,1.0,1.0,59,0.00,,,0.00,Wunderground v.1.15,2013-03-27 23:40:00,
2013-03-27 19:45:00,37.9,25.2,30.18,WSW,256,1.0,1.0,60,0.00,,,0.00,Wunderground v.1.15,2013-03-27 23:45:00,
2013-03-27 19:55:00,37.8,25.1,30.18,WSW,257,1.0,1.0,60,0.00,,,0.00,Wunderground v.1.15,2013-03-27 23:55:00,
2013-03-27 20:00:00,37.8,25.9,30.18,ENE,71,1.0,1.0,62,0.00,,,0.00,Wunderground v.1.15,2013-03-28 00:00:00,
2013-03-27 20:10:00,37.6,25.7,30.18,WSW,257,1.0,10.0,62,0.00,,,0.00,Wunderground v.1.15,2013-03-28 00:10:00,
2013-03-27 20:15:00,37.5,25.3,30.18,NNE,29,1.0,10.0,61,0.00,,,0.00,Wunderground v.1.15,2013-03-28 00:15:00,
2013-03-27 20:25:00,37.3,25.5,30.18,East,92,0.0,1.0,62,0.00,,,0.00,Wunderground v.1.15,2013-03-28 00:25:00,
2013-03-27 20:30:00,37.2,25.4,30.18,SW,219,0.0,0.0,62,0.00,,,0.00,Wunderground v.1.15,2013-03-28 00:30:00,
2013-03-27 20:40:00,37.2,25.0,30.18,West,274,1.0,1.0,61,0.00,,,0.00,Wunderground v.1.15,2013-03-28 00:40:00,
2013-03-27 20:45:00,37.2,25.0,30.18,West,263,1.0,2.0,61,0.00,,,0.00,Wunderground v.1.15,2013-03-28 00:45:00,
2013-03-27 20:55:00,37.0,24.8,30.19,West,271,1.0,2.0,61,0.00,,,0.00,Wunderground v.1.15,2013-03-28 00:55:00,
2013-03-27 21:00:00,37.0,24.8,30.19,WSW,258,1.0,2.0,61,0.00,,,0.00,Wunderground v.1.15,2013-03-28 01:00:00,
2013-03-27 21:10:00,36.9,24.7,30.19,SW,228,1.0,1.0,61,0.00,,,0.00,Wunderground v.1.15,2013-03-28 01:10:00,
2013-03-27 21:15:00,36.9,24.7,30.19,West,262,1.0,1.0,61,0.00,,,0.00,Wunderground v.1.15,2013-03-28 01:15:00,
2013-03-27 21:25:00,36.9,24.7,30.19,WSW,251,1.0,1.0,61,0.00,,,0.00,Wunderground v.1.15,2013-03-28 01:25:00,
2013-03-27 21:30:00,36.9,24.7,30.19,West,263,1.0,3.0,61,0.00,,,0.00,Wunderground v.1.15,2013-03-28 01:30:00,
2013-03-27 21:40:00,36.8,24.6,30.19,WSW,250,1.0,1.0,61,0.00,,,0.00,Wunderground v.1.15,2013-03-28 01:40:00,
2013-03-27 21:45:00,36.8,24.6,30.19,WSW,252,1.0,1.0,61,0.00,,,0.00,Wunderground v.1.15,2013-03-28 01:45:00,
2013-03-27 21:55:00,36.6,24.8,30.19,WSW,250,1.0,1.0,62,0.00,,,0.00,Wunderground v.1.15,2013-03-28 01:55:00,
2013-03-27 22:00:00,36.6,24.8,30.19,West,275,1.0,1.0,62,0.00,,,0.00,Wunderground v.1.15,2013-03-28 02:00:00,
2013-03-27 22:10:00,36.6,24.4,30.19,SW,230,1.0,1.0,61,0.00,,,0.00,Wunderground v.1.15,2013-03-28 02:10:00,
2013-03-27 22:15:00,36.6,24.4,30.19,SW,234,1.0,1.0,61,0.00,,,0.00,Wunderground v.1.15,2013-03-28 02:15:00,
2013-03-27 22:25:00,36.5,24.7,30.19,ESE,122,1.0,3.0,62,0.00,,,0.00,Wunderground v.1.15,2013-03-28 02:25:00,
2013-03-27 22:30:00,36.5,24.7,30.19,West,259,1.0,1.0,62,0.00,,,0.00,Wunderground v.1.15,2013-03-28 02:30:00,
2013-03-27 22:40:00,36.3,24.9,30.19,West,267,1.0,2.0,63,0.00,,,0.00,Wunderground v.1.15,2013-03-28 02:40:00,
2013-03-27 22:45:00,36.3,24.5,30.19,WNW,288,1.0,2.0,62,0.00,,,0.00,Wunderground v.1.15,2013-03-28 02:45:00,
2013-03-27 22:55:00,36.2,24.8,30.19,WSW,257,2.0,3.0,63,0.00,,,0.00,Wunderground v.1.15,2013-03-28 02:55:00,
2013-03-27 23:00:00,35.9,24.5,30.19,WSW,257,1.0,1.0,63,0.00,,,0.00,Wunderground v.1.15,2013-03-28 03:00:00,
2013-03-27 23:10:00,35.3,24.3,30.19,SW,214,0.0,1.0,64,0.00,,,0.00,Wunderground v.1.15,2013-03-28 03:10:00,
2013-03-27 23:15:00,35.2,24.2,30.19,SW,235,1.0,1.0,64,0.00,,,0.00,Wunderground v.1.15,2013-03-28 03:15:00,
2013-03-27 23:25:00,34.9,24.3,30.19,WSW,246,1.0,3.0,65,0.00,,,0.00,Wunderground v.1.15,2013-03-28 03:25:00,
2013-03-27 23:30:00,34.9,24.3,30.19,West,259,1.0,1.0,65,0.00,,,0.00,Wunderground v.1.15,2013-03-28 03:30:00,
2013-03-27 23:40:00,34.7,24.5,30.18,WSW,251,1.0,1.0,66,0.00,,,0.00,Wunderground v.1.15,2013-03-28 03:40:00,
2013-03-27 23:45:00,34.6,24.4,30.18,WSW,242,1.0,1.0,66,0.00,,,0.00,Wunderground v.1.15,2013-03-28 03:45:00,
2013-03-27 23:55:00,34.4,24.2,30.18,WSW,243,1.0,1.0,66,0.00,,,0.00,Wunderground v.1.15,2013-03-28 03:55:00,